EZY734A EGAA-LEMG

Flight info

Callsign EZY734A
Flight time 2h 49m
Altitude 37000
Route BELZU DCT DEGOS DCT TUGSI DCT TUVEN/M078F370 DCT TULTA/N0449F370 DCT KORUL DCT VES DCT OMESI M30 ZMR DCT AVILA DCT NVS DCT TLD DCT DOPEN DCT MONTO DCT CRISA N864 VULPE
Aircraft A320/M-SDE3FGHIRWY/LB1

Departure

Time 2026-05-07 13:46
Airport Belfast International Airport (EGAA)

Arrival

Time 2026-05-07 16:35
Airport Málaga-Costa del Sol Airport (LEMG)
Time Latitude Longitude Altitude Speed Heading
2026-05-07 13:12 54.66031 -6.22085 272 ft 0 kts 14°
2026-05-07 13:35 54.66027 -6.22086 272 ft 2 kts 14°
2026-05-07 13:35 54.66009 -6.22095 272 ft 3 kts 20°
2026-05-07 13:35 54.65991 -6.22109 276 ft 3 kts 28°
2026-05-07 13:36 54.65973 -6.22126 272 ft 3 kts 37°
2026-05-07 13:36 54.65958 -6.22149 276 ft 3 kts 48°
2026-05-07 13:36 54.65946 -6.22176 274 ft 2 kts 63°
2026-05-07 13:36 54.65943 -6.22185 276 ft 0 kts 66°
2026-05-07 13:39 54.65944 -6.22183 272 ft 1 kts 66°
2026-05-07 13:39 54.65951 -6.22154 272 ft 5 kts 66°
2026-05-07 13:40 54.65944 -6.22091 272 ft 8 kts 134°
2026-05-07 13:40 54.65899 -6.22045 272 ft 8 kts 154°
2026-05-07 13:40 54.65851 -6.21996 272 ft 8 kts 134°
2026-05-07 13:40 54.65847 -6.21909 272 ft 7 kts 78°
2026-05-07 13:41 54.65875 -6.21792 274 ft 15 kts 64°
2026-05-07 13:41 54.65926 -6.21604 272 ft 17 kts 65°
2026-05-07 13:41 54.65972 -6.21431 274 ft 15 kts 65°
2026-05-07 13:41 54.66013 -6.21283 272 ft 13 kts 65°
2026-05-07 13:42 54.66049 -6.21150 272 ft 11 kts 65°
2026-05-07 13:42 54.66080 -6.21036 272 ft 10 kts 65°
2026-05-07 13:42 54.66107 -6.20929 272 ft 11 kts 65°
2026-05-07 13:42 54.66151 -6.20768 272 ft 17 kts 64°
2026-05-07 13:43 54.66197 -6.20598 272 ft 15 kts 65°
2026-05-07 13:43 54.66237 -6.20449 272 ft 13 kts 65°
2026-05-07 13:43 54.66277 -6.20302 273 ft 17 kts 65°
2026-05-07 13:43 54.66334 -6.20091 272 ft 20 kts 65°
2026-05-07 13:44 54.66387 -6.19889 276 ft 17 kts 67°
2026-05-07 13:44 54.66366 -6.19718 272 ft 15 kts 143°
2026-05-07 13:44 54.66269 -6.19668 272 ft 12 kts 197°
2026-05-07 13:44 54.66239 -6.19764 274 ft 0 kts 245°
2026-05-07 13:45 54.66230 -6.19796 272 ft 21 kts 245°
2026-05-07 13:45 54.66067 -6.20392 272 ft 89 kts 245°
2026-05-07 13:45 54.65728 -6.21654 274 ft 141 kts 244°
2026-05-07 13:46 54.65268 -6.23191 754 ft 147 kts 238°
2026-05-07 13:46 54.64788 -6.24787 1467 ft 151 kts 239°
2026-05-07 13:46 54.64323 -6.26438 1857 ft 165 kts 239°
2026-05-07 13:46 54.63628 -6.27981 2278 ft 173 kts 221°
2026-05-07 13:47 54.62654 -6.29390 2541 ft 194 kts 217°
2026-05-07 13:47 54.61550 -6.30878 2827 ft 217 kts 217°
2026-05-07 13:47 54.60297 -6.32566 3191 ft 240 kts 218°
2026-05-07 13:47 54.58949 -6.34410 3776 ft 251 kts 218°
2026-05-07 13:48 54.57574 -6.36318 4588 ft 255 kts 219°
2026-05-07 13:48 54.56255 -6.38169 5365 ft 258 kts 219°
2026-05-07 13:48 54.54834 -6.40175 6194 ft 261 kts 219°
2026-05-07 13:48 54.53424 -6.42171 6968 ft 264 kts 219°
2026-05-07 13:49 54.52005 -6.44185 7710 ft 268 kts 219°
2026-05-07 13:49 54.50602 -6.46174 8446 ft 271 kts 219°
2026-05-07 13:49 54.49136 -6.48252 9219 ft 275 kts 220°
2026-05-07 13:49 54.47672 -6.50326 9933 ft 278 kts 220°
2026-05-07 13:50 54.46168 -6.52455 10619 ft 281 kts 220°
2026-05-07 13:50 54.44650 -6.54603 11341 ft 284 kts 220°
2026-05-07 13:50 54.43130 -6.56749 12057 ft 286 kts 219°
2026-05-07 13:50 54.41583 -6.58931 12757 ft 289 kts 219°
2026-05-07 13:51 54.40021 -6.61130 13445 ft 292 kts 219°
2026-05-07 13:51 54.38442 -6.63347 14081 ft 295 kts 219°
2026-05-07 13:51 54.36846 -6.65586 14681 ft 298 kts 219°
2026-05-07 13:51 54.35233 -6.67850 15262 ft 301 kts 219°
2026-05-07 13:52 54.33718 -6.69978 15786 ft 304 kts 219°
2026-05-07 13:52 54.31976 -6.72423 16391 ft 307 kts 219°
2026-05-07 13:52 54.30316 -6.74751 16951 ft 310 kts 219°
2026-05-07 13:52 54.28636 -6.77100 17510 ft 313 kts 219°
2026-05-07 13:53 54.26941 -6.79473 18066 ft 316 kts 219°
2026-05-07 13:53 54.25232 -6.81866 18559 ft 319 kts 219°
2026-05-07 13:53 54.23507 -6.84270 19054 ft 321 kts 219°
2026-05-07 13:53 54.21767 -6.86687 19550 ft 323 kts 219°
2026-05-07 13:54 54.20017 -6.89113 20043 ft 325 kts 219°
2026-05-07 13:54 54.18260 -6.91562 20539 ft 327 kts 219°
2026-05-07 13:54 54.16513 -6.94077 21038 ft 329 kts 220°
2026-05-07 13:54 54.14774 -6.96640 21537 ft 331 kts 220°
2026-05-07 13:55 54.13030 -6.99229 22010 ft 334 kts 220°
2026-05-07 13:55 54.11275 -7.01831 22482 ft 336 kts 220°
2026-05-07 13:55 54.09528 -7.04412 22940 ft 338 kts 220°
2026-05-07 13:55 54.07747 -7.07030 23403 ft 340 kts 220°
2026-05-07 13:56 54.05945 -7.09665 23790 ft 342 kts 220°
2026-05-07 13:56 54.04131 -7.12313 24167 ft 345 kts 220°
2026-05-07 13:56 54.02298 -7.14960 24532 ft 347 kts 217°
2026-05-07 13:56 54.00289 -7.17245 24885 ft 349 kts 208°
2026-05-07 13:57 53.98073 -7.18925 25236 ft 351 kts 199°
2026-05-07 13:57 53.95701 -7.19986 25592 ft 354 kts 193°
2026-05-07 13:57 53.93292 -7.20886 25943 ft 356 kts 193°
2026-05-07 13:57 53.90873 -7.21800 26295 ft 358 kts 193°
2026-05-07 13:58 53.88440 -7.22723 26664 ft 359 kts 193°
2026-05-07 13:58 53.86820 -7.23339 26899 ft 361 kts 193°
2026-05-07 13:58 53.84362 -7.24275 27247 ft 363 kts 193°
2026-05-07 13:58 53.81892 -7.25209 27595 ft 364 kts 193°
2026-05-07 13:59 53.79410 -7.26141 27936 ft 366 kts 193°
2026-05-07 13:59 53.76915 -7.27078 28270 ft 368 kts 193°
2026-05-07 13:59 53.73592 -7.28330 28706 ft 371 kts 192°
2026-05-07 13:59 53.71068 -7.29281 29019 ft 373 kts 192°
2026-05-07 14:00 53.69354 -7.29928 29234 ft 374 kts 192°
2026-05-07 14:00 53.66807 -7.30888 29546 ft 376 kts 192°
2026-05-07 14:00 53.64246 -7.31850 29849 ft 378 kts 192°
2026-05-07 14:00 53.61674 -7.32817 30138 ft 379 kts 192°
2026-05-07 14:01 53.59102 -7.33777 30471 ft 378 kts 192°
2026-05-07 14:01 53.56572 -7.34722 30830 ft 377 kts 192°
2026-05-07 14:01 53.54013 -7.35681 31172 ft 376 kts 192°
2026-05-07 14:01 53.51463 -7.36635 31524 ft 375 kts 192°
2026-05-07 14:02 53.48911 -7.37585 31869 ft 375 kts 192°
2026-05-07 14:02 53.46371 -7.38530 32209 ft 374 kts 192°
2026-05-07 14:02 53.43835 -7.39472 32542 ft 373 kts 192°
2026-05-07 14:02 53.41296 -7.40412 32857 ft 373 kts 192°
2026-05-07 14:03 53.38765 -7.41347 33179 ft 372 kts 192°
2026-05-07 14:03 53.36237 -7.42280 33464 ft 372 kts 192°
2026-05-07 14:03 53.33712 -7.43210 33757 ft 371 kts 192°
2026-05-07 14:03 53.31194 -7.44138 34026 ft 370 kts 192°
2026-05-07 14:04 53.28678 -7.45063 34246 ft 370 kts 192°
2026-05-07 14:04 53.26157 -7.45992 34409 ft 372 kts 192°
2026-05-07 14:04 53.23624 -7.46929 34552 ft 374 kts 192°
2026-05-07 14:04 53.21079 -7.47869 34696 ft 375 kts 192°
2026-05-07 14:05 53.18521 -7.48809 34827 ft 377 kts 192°
2026-05-07 14:05 53.15955 -7.49751 34967 ft 379 kts 192°
2026-05-07 14:05 53.13370 -7.50698 35094 ft 381 kts 192°
2026-05-07 14:05 53.10779 -7.51645 35228 ft 382 kts 192°
2026-05-07 14:06 53.08171 -7.52595 35361 ft 384 kts 192°
2026-05-07 14:06 53.05553 -7.53546 35498 ft 386 kts 192°
2026-05-07 14:06 53.02955 -7.54489 35629 ft 388 kts 192°
2026-05-07 14:06 53.00315 -7.55451 35756 ft 389 kts 193°
2026-05-07 14:07 52.97663 -7.56417 35881 ft 391 kts 193°
2026-05-07 14:07 52.94997 -7.57384 36019 ft 393 kts 193°
2026-05-07 14:07 52.92326 -7.58350 36143 ft 394 kts 193°
2026-05-07 14:07 52.89642 -7.59322 36273 ft 395 kts 193°
2026-05-07 14:08 52.86946 -7.60298 36404 ft 397 kts 193°
2026-05-07 14:08 52.84247 -7.61270 36534 ft 398 kts 193°
2026-05-07 14:08 52.81544 -7.62240 36663 ft 398 kts 193°
2026-05-07 14:08 52.78834 -7.63214 36815 ft 398 kts 193°
2026-05-07 14:09 52.76122 -7.64191 36925 ft 400 kts 193°
2026-05-07 14:09 52.70630 -7.66170 36944 ft 408 kts 193°
2026-05-07 14:10 52.65035 -7.68179 36949 ft 415 kts 193°
2026-05-07 14:10 52.59343 -7.70212 36948 ft 422 kts 193°
2026-05-07 14:11 52.53561 -7.72267 36954 ft 429 kts 193°
2026-05-07 14:11 52.47682 -7.74347 36956 ft 435 kts 193°
2026-05-07 14:12 52.41722 -7.76464 36956 ft 440 kts 193°
2026-05-07 14:12 52.35727 -7.78591 36961 ft 441 kts 193°
2026-05-07 14:13 52.29765 -7.80687 36969 ft 441 kts 193°
2026-05-07 14:13 52.23756 -7.82796 36970 ft 442 kts 193°
2026-05-07 14:14 52.17748 -7.84898 36971 ft 442 kts 193°
2026-05-07 14:14 52.11740 -7.86989 36970 ft 442 kts 193°
2026-05-07 14:15 52.05730 -7.89077 36970 ft 442 kts 193°
2026-05-07 14:15 51.99720 -7.91172 36974 ft 442 kts 193°
2026-05-07 14:16 51.93708 -7.93263 36970 ft 442 kts 193°
2026-05-07 14:16 51.87694 -7.95345 36972 ft 442 kts 193°
2026-05-07 14:17 51.81669 -7.97414 36975 ft 442 kts 193°
2026-05-07 14:17 51.75679 -7.99460 36978 ft 443 kts 193°
2026-05-07 14:18 51.69654 -8.01527 36983 ft 443 kts 193°
2026-05-07 14:18 51.63622 -8.03601 36984 ft 443 kts 193°
2026-05-07 14:19 51.57577 -8.05660 36988 ft 443 kts 193°
2026-05-07 14:19 51.51544 -8.07716 36994 ft 444 kts 193°
2026-05-07 14:20 51.45496 -8.09767 36987 ft 444 kts 193°
2026-05-07 14:20 51.39450 -8.11803 36986 ft 444 kts 193°
2026-05-07 14:21 51.33395 -8.13847 36995 ft 445 kts 193°
2026-05-07 14:21 51.27373 -8.15857 36995 ft 445 kts 193°
2026-05-07 14:22 51.21305 -8.17888 37003 ft 445 kts 193°
2026-05-07 14:22 51.15239 -8.19924 37003 ft 446 kts 193°
2026-05-07 14:23 51.09167 -8.21949 36995 ft 446 kts 193°
2026-05-07 14:23 51.03087 -8.23980 36995 ft 446 kts 193°
2026-05-07 14:24 50.96942 -8.24710 36993 ft 448 kts 177°
2026-05-07 14:24 50.90716 -8.24007 37004 ft 449 kts 177°
2026-05-07 14:25 50.84478 -8.23319 37008 ft 449 kts 177°
2026-05-07 14:25 50.78236 -8.22647 37006 ft 450 kts 178°
2026-05-07 14:26 50.71985 -8.21984 37008 ft 450 kts 178°
2026-05-07 14:26 50.65768 -8.21320 37013 ft 451 kts 177°
2026-05-07 14:27 50.59511 -8.20649 36999 ft 451 kts 178°
2026-05-07 14:27 50.53245 -8.19977 37016 ft 451 kts 178°
2026-05-07 14:28 50.46975 -8.19308 37017 ft 452 kts 178°
2026-05-07 14:28 50.40699 -8.18639 37016 ft 452 kts 178°
2026-05-07 14:29 50.34422 -8.17983 37017 ft 452 kts 178°
2026-05-07 14:29 50.28141 -8.17318 37022 ft 453 kts 178°
2026-05-07 14:30 50.21892 -8.16656 37024 ft 453 kts 178°
2026-05-07 14:30 50.15595 -8.15998 37026 ft 453 kts 178°
2026-05-07 14:31 50.09298 -8.15347 37030 ft 454 kts 178°
2026-05-07 14:31 50.03001 -8.14693 37024 ft 453 kts 178°
2026-05-07 14:32 49.96704 -8.14030 37029 ft 454 kts 178°
2026-05-07 14:32 49.90400 -8.13371 37026 ft 454 kts 178°
2026-05-07 14:33 49.84136 -8.12718 37024 ft 454 kts 178°
2026-05-07 14:33 49.77827 -8.12076 37022 ft 454 kts 178°
2026-05-07 14:34 49.71522 -8.11434 37024 ft 454 kts 178°
2026-05-07 14:34 49.65213 -8.10786 37023 ft 454 kts 178°
2026-05-07 14:35 49.58905 -8.10132 37024 ft 455 kts 178°
2026-05-07 14:35 49.52590 -8.09497 37021 ft 455 kts 178°
2026-05-07 14:36 49.46272 -8.08862 37024 ft 455 kts 178°
2026-05-07 14:36 49.39951 -8.08216 37018 ft 455 kts 178°
2026-05-07 14:37 49.33621 -8.07562 37021 ft 456 kts 178°
2026-05-07 14:37 49.24113 -8.06596 37024 ft 456 kts 178°
2026-05-07 14:38 49.17773 -8.05975 37025 ft 457 kts 178°
2026-05-07 14:38 49.11427 -8.05334 37027 ft 457 kts 178°
2026-05-07 14:39 49.05071 -8.04683 37029 ft 458 kts 178°
2026-05-07 14:39 48.98717 -8.04053 37028 ft 458 kts 178°
2026-05-07 14:40 48.92403 -8.03428 37031 ft 458 kts 178°
2026-05-07 14:40 48.86037 -8.02790 37031 ft 458 kts 178°
2026-05-07 14:41 48.79676 -8.02169 37028 ft 458 kts 178°
2026-05-07 14:41 48.73308 -8.01546 37025 ft 458 kts 178°
2026-05-07 14:42 48.66944 -8.00918 37020 ft 458 kts 178°
2026-05-07 14:42 48.60579 -8.00285 37021 ft 458 kts 179°
2026-05-07 14:43 48.54256 -7.98961 37013 ft 460 kts 171°
2026-05-07 14:43 48.47981 -7.97006 37010 ft 461 kts 171°
2026-05-07 14:44 48.41699 -7.95050 37006 ft 461 kts 171°
2026-05-07 14:44 48.35451 -7.93133 37005 ft 461 kts 171°
2026-05-07 14:45 48.29156 -7.91207 37008 ft 461 kts 171°
2026-05-07 14:45 48.22866 -7.89276 37006 ft 462 kts 171°
2026-05-07 14:46 48.16572 -7.87348 37007 ft 462 kts 171°
2026-05-07 14:46 48.10266 -7.85427 37010 ft 462 kts 171°
2026-05-07 14:47 48.03957 -7.83516 37015 ft 463 kts 171°
2026-05-07 14:47 47.97638 -7.81604 37015 ft 463 kts 171°
2026-05-07 14:48 47.91313 -7.79694 37011 ft 464 kts 171°
2026-05-07 14:48 47.85032 -7.77788 37010 ft 464 kts 171°
2026-05-07 14:49 47.78699 -7.75871 37011 ft 464 kts 171°
2026-05-07 14:49 47.72367 -7.73969 37020 ft 465 kts 171°
2026-05-07 14:50 47.66027 -7.72080 37010 ft 465 kts 172°
2026-05-07 14:50 47.59682 -7.70196 37011 ft 465 kts 172°
2026-05-07 14:51 47.53343 -7.68315 37003 ft 464 kts 172°
2026-05-07 14:51 47.47009 -7.66436 37000 ft 465 kts 172°
2026-05-07 14:52 47.40663 -7.64553 36999 ft 465 kts 172°
2026-05-07 14:52 47.34357 -7.62677 37000 ft 465 kts 172°
2026-05-07 14:53 47.28005 -7.60807 36999 ft 466 kts 172°
2026-05-07 14:53 47.21655 -7.58947 36998 ft 466 kts 172°
2026-05-07 14:54 47.15296 -7.57073 36995 ft 466 kts 172°
2026-05-07 14:54 47.08937 -7.55204 36993 ft 466 kts 172°
2026-05-07 14:55 47.02581 -7.53349 36998 ft 466 kts 172°
2026-05-07 14:55 46.96215 -7.51506 37000 ft 466 kts 172°
2026-05-07 14:56 46.89885 -7.49663 36998 ft 466 kts 172°
2026-05-07 14:56 46.83523 -7.47809 36996 ft 466 kts 172°
2026-05-07 14:57 46.78192 -7.46267 37004 ft 466 kts 172°
2026-05-07 14:57 46.71868 -7.44438 36989 ft 466 kts 172°
2026-05-07 14:58 46.65509 -7.42602 36994 ft 466 kts 172°
2026-05-07 14:58 46.59150 -7.40771 36988 ft 466 kts 172°
2026-05-07 14:59 46.52788 -7.38950 36986 ft 466 kts 172°
2026-05-07 14:59 46.46426 -7.37134 36983 ft 466 kts 172°
2026-05-07 15:00 46.40066 -7.35327 36977 ft 466 kts 172°
2026-05-07 15:00 46.33704 -7.33512 36982 ft 466 kts 172°
2026-05-07 15:01 46.27335 -7.31703 36977 ft 466 kts 172°
2026-05-07 15:01 46.20965 -7.29898 36977 ft 466 kts 172°
2026-05-07 15:02 46.14636 -7.28100 36984 ft 467 kts 172°
2026-05-07 15:02 46.08258 -7.26302 36980 ft 467 kts 172°
2026-05-07 15:03 46.01886 -7.24520 36978 ft 467 kts 172°
2026-05-07 15:03 45.95507 -7.22733 36983 ft 467 kts 172°
2026-05-07 15:04 45.89127 -7.20942 36978 ft 467 kts 172°
2026-05-07 15:04 45.82739 -7.19147 36974 ft 467 kts 172°
2026-05-07 15:05 45.76397 -7.17374 36970 ft 467 kts 172°
2026-05-07 15:05 45.70014 -7.15604 36973 ft 468 kts 172°
2026-05-07 15:06 45.63628 -7.13844 36968 ft 468 kts 172°
2026-05-07 15:06 45.57237 -7.12079 36969 ft 468 kts 172°
2026-05-07 15:07 45.50847 -7.10313 36971 ft 468 kts 172°
2026-05-07 15:07 45.44457 -7.08552 36964 ft 468 kts 172°
2026-05-07 15:08 45.38067 -7.06801 36957 ft 468 kts 172°
2026-05-07 15:08 45.31668 -7.05045 36963 ft 468 kts 172°
2026-05-07 15:09 45.25268 -7.03296 36971 ft 468 kts 172°
2026-05-07 15:09 45.18868 -7.01547 36961 ft 468 kts 172°
2026-05-07 15:10 45.12473 -6.99792 36952 ft 468 kts 172°
2026-05-07 15:10 45.06077 -6.98057 36949 ft 468 kts 172°
2026-05-07 15:11 44.99680 -6.96333 36949 ft 468 kts 172°
2026-05-07 15:11 44.93329 -6.94613 36951 ft 468 kts 172°
2026-05-07 15:12 44.86931 -6.92886 36945 ft 468 kts 172°
2026-05-07 15:12 44.80759 -6.89958 36940 ft 473 kts 154°
2026-05-07 15:13 44.74915 -6.85670 36936 ft 473 kts 155°
2026-05-07 15:13 44.69061 -6.81418 36930 ft 473 kts 155°
2026-05-07 15:14 44.63203 -6.77178 36927 ft 474 kts 155°
2026-05-07 15:14 44.57350 -6.72934 36921 ft 474 kts 155°
2026-05-07 15:15 44.51500 -6.68685 36918 ft 474 kts 155°
2026-05-07 15:15 44.45642 -6.64454 36915 ft 474 kts 155°
2026-05-07 15:16 44.39777 -6.60228 36912 ft 474 kts 155°
2026-05-07 15:16 44.33944 -6.56030 36913 ft 474 kts 155°
2026-05-07 15:17 44.28066 -6.51834 36910 ft 475 kts 155°
2026-05-07 15:17 44.22185 -6.47627 36907 ft 475 kts 155°
2026-05-07 15:18 44.16302 -6.43420 36906 ft 475 kts 155°
2026-05-07 15:18 44.10413 -6.39223 36907 ft 476 kts 155°
2026-05-07 15:19 44.04518 -6.35036 36904 ft 476 kts 155°
2026-05-07 15:19 43.98612 -6.30863 36904 ft 476 kts 155°
2026-05-07 15:20 43.92743 -6.26709 36902 ft 477 kts 155°
2026-05-07 15:20 43.86834 -6.22531 36902 ft 477 kts 155°
2026-05-07 15:21 43.80971 -6.18404 36900 ft 477 kts 155°
2026-05-07 15:21 43.75048 -6.14244 36897 ft 477 kts 155°
2026-05-07 15:22 43.69126 -6.10089 36896 ft 477 kts 155°
2026-05-07 15:22 43.63200 -6.05941 36901 ft 478 kts 155°
2026-05-07 15:23 43.57243 -6.01890 36901 ft 476 kts 161°
2026-05-07 15:23 43.50868 -5.99784 36903 ft 470 kts 175°
2026-05-07 15:24 43.44429 -5.98616 36899 ft 470 kts 175°
2026-05-07 15:24 43.37939 -5.97403 36895 ft 471 kts 175°
2026-05-07 15:25 43.31448 -5.96185 36892 ft 470 kts 175°
2026-05-07 15:25 43.24957 -5.94984 36885 ft 471 kts 175°
2026-05-07 15:26 43.18468 -5.93779 36880 ft 471 kts 175°
2026-05-07 15:26 43.11971 -5.92577 36874 ft 471 kts 175°
2026-05-07 15:27 43.05472 -5.91372 36880 ft 472 kts 175°
2026-05-07 15:27 42.99009 -5.90185 36884 ft 471 kts 175°
2026-05-07 15:28 42.92500 -5.88998 36882 ft 472 kts 175°
2026-05-07 15:28 42.85990 -5.87800 36885 ft 472 kts 175°
2026-05-07 15:29 42.79473 -5.86608 36880 ft 472 kts 175°
2026-05-07 15:29 42.72956 -5.85422 36879 ft 472 kts 175°
2026-05-07 15:30 42.66445 -5.84232 36879 ft 472 kts 175°
2026-05-07 15:30 42.59980 -5.83057 36879 ft 472 kts 175°
2026-05-07 15:31 42.53477 -5.81883 36878 ft 472 kts 175°
2026-05-07 15:31 42.46975 -5.80709 36876 ft 471 kts 175°
2026-05-07 15:32 42.40474 -5.79533 36868 ft 471 kts 175°
2026-05-07 15:32 42.33977 -5.78359 36868 ft 471 kts 175°
2026-05-07 15:33 42.27475 -5.77195 36868 ft 472 kts 176°
2026-05-07 15:33 42.20966 -5.76035 36868 ft 472 kts 176°
2026-05-07 15:34 42.14457 -5.74868 36868 ft 472 kts 176°
2026-05-07 15:34 42.07931 -5.73698 36873 ft 473 kts 176°
2026-05-07 15:35 42.01410 -5.72525 36876 ft 473 kts 176°
2026-05-07 15:35 41.94890 -5.71365 36876 ft 473 kts 176°
2026-05-07 15:36 41.88363 -5.70213 36881 ft 473 kts 176°
2026-05-07 15:36 41.81882 -5.69074 36875 ft 473 kts 176°
2026-05-07 15:37 41.75356 -5.67920 36875 ft 473 kts 176°
2026-05-07 15:37 41.68824 -5.66755 36885 ft 473 kts 176°
2026-05-07 15:38 41.62296 -5.65598 36880 ft 474 kts 176°
2026-05-07 15:38 41.55789 -5.64081 36875 ft 480 kts 166°
2026-05-07 15:39 41.52686 -5.62381 36871 ft 485 kts 155°
2026-05-07 15:39 41.49831 -5.59954 36874 ft 489 kts 144°
2026-05-07 15:39 41.44757 -5.53856 36876 ft 492 kts 140°
2026-05-07 15:40 41.39708 -5.47674 36882 ft 493 kts 140°
2026-05-07 15:40 41.34640 -5.41510 36890 ft 494 kts 140°
2026-05-07 15:41 41.29597 -5.35382 36893 ft 494 kts 140°
2026-05-07 15:41 41.24522 -5.29224 36893 ft 494 kts 140°
2026-05-07 15:42 41.19440 -5.23072 36898 ft 494 kts 140°
2026-05-07 15:42 41.14348 -5.16918 36902 ft 495 kts 140°
2026-05-07 15:43 41.09249 -5.10768 36905 ft 496 kts 140°
2026-05-07 15:43 41.04133 -5.04627 36914 ft 496 kts 140°
2026-05-07 15:44 40.99015 -4.98491 36919 ft 496 kts 140°
2026-05-07 15:44 40.93937 -4.92395 36920 ft 496 kts 140°
2026-05-07 15:45 40.88820 -4.86275 36917 ft 496 kts 141°
2026-05-07 15:45 40.83757 -4.80244 36914 ft 495 kts 141°
2026-05-07 15:46 40.76073 -4.71118 36909 ft 495 kts 141°
2026-05-07 15:47 40.70991 -4.65081 36908 ft 495 kts 141°
2026-05-07 15:47 40.65858 -4.59009 36913 ft 495 kts 141°
2026-05-07 15:48 40.60725 -4.52965 36911 ft 495 kts 141°
2026-05-07 15:48 40.55586 -4.46907 36908 ft 495 kts 141°
2026-05-07 15:49 40.50459 -4.40862 36914 ft 495 kts 141°
2026-05-07 15:49 40.45317 -4.34836 36909 ft 495 kts 141°
2026-05-07 15:50 40.39870 -4.29407 36899 ft 488 kts 157°
2026-05-07 15:50 40.36772 -4.27700 36895 ft 481 kts 168°
2026-05-07 15:50 40.33529 -4.26777 36887 ft 473 kts 179°
2026-05-07 15:51 40.27077 -4.27130 36876 ft 461 kts 195°
2026-05-07 15:51 40.20779 -4.28533 36876 ft 463 kts 195°
2026-05-07 15:52 40.14421 -4.29909 36872 ft 464 kts 195°
2026-05-07 15:52 40.08051 -4.31299 36876 ft 464 kts 195°
2026-05-07 15:53 40.01679 -4.32703 36867 ft 464 kts 195°
2026-05-07 15:53 39.95311 -4.34103 36868 ft 464 kts 195°
2026-05-07 15:54 39.90014 -4.35252 36867 ft 464 kts 196°
2026-05-07 15:54 39.83638 -4.36621 36864 ft 464 kts 196°
2026-05-07 15:55 39.77263 -4.37989 36870 ft 464 kts 196°
2026-05-07 15:55 39.70887 -4.39358 36876 ft 464 kts 196°
2026-05-07 15:56 39.64517 -4.40715 36878 ft 464 kts 196°
2026-05-07 15:56 39.58152 -4.42075 36881 ft 464 kts 197°
2026-05-07 15:57 39.51795 -4.43422 36894 ft 463 kts 197°
2026-05-07 15:57 39.45441 -4.44771 36898 ft 462 kts 197°
2026-05-07 15:58 39.39106 -4.46117 36899 ft 461 kts 197°
2026-05-07 15:58 39.32828 -4.47451 36909 ft 459 kts 197°
2026-05-07 15:59 39.26524 -4.48779 36906 ft 459 kts 197°
2026-05-07 15:59 39.20234 -4.50101 36908 ft 458 kts 197°
2026-05-07 16:00 39.13956 -4.51415 36899 ft 457 kts 197°
2026-05-07 16:00 39.07690 -4.52724 36899 ft 456 kts 197°
2026-05-07 16:01 39.01436 -4.54036 36876 ft 454 kts 197°
2026-05-07 16:01 38.95216 -4.55342 36867 ft 452 kts 198°
2026-05-07 16:02 38.89015 -4.56644 36865 ft 451 kts 198°
2026-05-07 16:02 38.82821 -4.57928 36852 ft 451 kts 198°
2026-05-07 16:03 38.76675 -4.59213 36858 ft 451 kts 197°
2026-05-07 16:03 38.70480 -4.60508 36854 ft 451 kts 197°
2026-05-07 16:04 38.64280 -4.61792 36857 ft 451 kts 197°
2026-05-07 16:04 38.58078 -4.63073 36856 ft 451 kts 197°
2026-05-07 16:05 38.51877 -4.64353 36857 ft 451 kts 197°
2026-05-07 16:05 38.45683 -4.65630 36855 ft 450 kts 197°
2026-05-07 16:06 38.39542 -4.66908 36856 ft 450 kts 197°
2026-05-07 16:06 38.33358 -4.68175 36801 ft 449 kts 197°
2026-05-07 16:06 38.30279 -4.68807 36340 ft 445 kts 198°
2026-05-07 16:07 38.27237 -4.69430 35845 ft 441 kts 198°
2026-05-07 16:07 38.24221 -4.70047 35349 ft 437 kts 198°
2026-05-07 16:07 38.21234 -4.70658 34866 ft 433 kts 198°
2026-05-07 16:07 38.18270 -4.71263 34377 ft 430 kts 198°
2026-05-07 16:08 38.15329 -4.71862 33911 ft 426 kts 198°
2026-05-07 16:08 38.12405 -4.72458 33409 ft 423 kts 198°
2026-05-07 16:08 38.09512 -4.73048 32879 ft 420 kts 198°
2026-05-07 16:08 38.06640 -4.73633 32366 ft 416 kts 198°
2026-05-07 16:09 38.03794 -4.74217 31842 ft 413 kts 198°
2026-05-07 16:09 38.00968 -4.74796 31352 ft 410 kts 198°
2026-05-07 16:09 37.98157 -4.75368 30863 ft 408 kts 198°
2026-05-07 16:09 37.95366 -4.75932 30393 ft 405 kts 197°
2026-05-07 16:10 37.92630 -4.76485 29941 ft 402 kts 197°
2026-05-07 16:10 37.89878 -4.77042 29400 ft 399 kts 197°
2026-05-07 16:10 37.87144 -4.77596 28862 ft 396 kts 197°
2026-05-07 16:10 37.84431 -4.78146 28351 ft 393 kts 197°
2026-05-07 16:11 37.81741 -4.78695 27853 ft 390 kts 197°
2026-05-07 16:11 37.79069 -4.79239 27360 ft 387 kts 196°
2026-05-07 16:11 37.76366 -4.79466 26869 ft 394 kts 185°
2026-05-07 16:11 37.73634 -4.78995 26409 ft 401 kts 172°
2026-05-07 16:12 37.70945 -4.78051 25937 ft 400 kts 171°
2026-05-07 16:12 37.68277 -4.77102 25481 ft 397 kts 171°
2026-05-07 16:12 37.65625 -4.76169 25025 ft 394 kts 171°
2026-05-07 16:12 37.62995 -4.75247 24587 ft 392 kts 171°
2026-05-07 16:13 37.60375 -4.74333 24175 ft 389 kts 171°
2026-05-07 16:13 37.57779 -4.73428 23759 ft 386 kts 171°
2026-05-07 16:13 37.55200 -4.72530 23314 ft 383 kts 170°
2026-05-07 16:13 37.52639 -4.71640 22862 ft 381 kts 170°
2026-05-07 16:14 37.50093 -4.70758 22419 ft 378 kts 170°
2026-05-07 16:14 37.47575 -4.69827 21987 ft 378 kts 164°
2026-05-07 16:14 37.45158 -4.68515 21563 ft 378 kts 161°
2026-05-07 16:14 37.42762 -4.67180 21139 ft 375 kts 161°
2026-05-07 16:15 37.40386 -4.65845 20729 ft 373 kts 161°
2026-05-07 16:15 37.38029 -4.64518 20336 ft 371 kts 161°
2026-05-07 16:15 37.35682 -4.63198 19952 ft 368 kts 161°
2026-05-07 16:15 37.33351 -4.61892 19557 ft 366 kts 161°
2026-05-07 16:16 37.31058 -4.60610 19181 ft 364 kts 160°
2026-05-07 16:16 37.28752 -4.59322 18809 ft 361 kts 161°
2026-05-07 16:16 37.26390 -4.58382 18441 ft 352 kts 175°
2026-05-07 16:16 37.23980 -4.58153 18039 ft 344 kts 185°
2026-05-07 16:17 37.21593 -4.58151 17639 ft 342 kts 185°
2026-05-07 16:17 37.19219 -4.58135 17255 ft 340 kts 184°
2026-05-07 16:17 37.16863 -4.58113 16870 ft 338 kts 184°
2026-05-07 16:17 37.14523 -4.58089 16502 ft 335 kts 184°
2026-05-07 16:18 37.12206 -4.58067 15993 ft 330 kts 183°
2026-05-07 16:18 37.09920 -4.58047 15361 ft 327 kts 182°
2026-05-07 16:18 37.07656 -4.58031 14753 ft 324 kts 182°
2026-05-07 16:18 37.05417 -4.58015 14160 ft 320 kts 182°
2026-05-07 16:19 37.03199 -4.57998 13584 ft 317 kts 182°
2026-05-07 16:19 37.01023 -4.57978 12948 ft 313 kts 181°
2026-05-07 16:19 36.98912 -4.57959 12332 ft 310 kts 182°
2026-05-07 16:19 36.96762 -4.57958 11681 ft 307 kts 186°
2026-05-07 16:20 36.94797 -4.58685 11098 ft 296 kts 216°
2026-05-07 16:20 36.93456 -4.60542 10521 ft 289 kts 247°
2026-05-07 16:20 36.93051 -4.62967 10002 ft 287 kts 266°
2026-05-07 16:20 36.93020 -4.65462 9443 ft 286 kts 274°
2026-05-07 16:21 36.93632 -4.67777 8898 ft 284 kts 305°
2026-05-07 16:21 36.95157 -4.69303 8351 ft 285 kts 338°
2026-05-07 16:21 36.97117 -4.69685 7704 ft 289 kts 356°
2026-05-07 16:21 36.99134 -4.69721 7124 ft 290 kts 359°
2026-05-07 16:22 37.01140 -4.69712 6602 ft 288 kts 359°
2026-05-07 16:22 37.02990 -4.69698 6160 ft 288 kts 359°
2026-05-07 16:22 37.04957 -4.69704 6026 ft 276 kts 355°
2026-05-07 16:22 37.06761 -4.70245 5899 ft 262 kts 333°
2026-05-07 16:23 37.08202 -4.71519 5763 ft 248 kts 311°
2026-05-07 16:23 37.09129 -4.73261 5635 ft 235 kts 290°
2026-05-07 16:23 37.09505 -4.75199 5502 ft 226 kts 271°
2026-05-07 16:23 37.09359 -4.77127 5271 ft 222 kts 253°
2026-05-07 16:24 37.08744 -4.78854 5009 ft 220 kts 234°
2026-05-07 16:24 37.07713 -4.80253 4936 ft 220 kts 217°
2026-05-07 16:24 37.06414 -4.81172 4941 ft 221 kts 200°
2026-05-07 16:24 37.04912 -4.81553 4947 ft 222 kts 182°
2026-05-07 16:25 37.03373 -4.81319 4947 ft 224 kts 169°
2026-05-07 16:25 37.01859 -4.80926 4934 ft 217 kts 169°
2026-05-07 16:25 37.00432 -4.80566 4966 ft 200 kts 169°
2026-05-07 16:25 36.99100 -4.80234 4954 ft 193 kts 169°
2026-05-07 16:26 36.97810 -4.79913 4947 ft 191 kts 170°
2026-05-07 16:26 36.96504 -4.79589 4944 ft 191 kts 170°
2026-05-07 16:26 36.95201 -4.79266 4946 ft 191 kts 170°
2026-05-07 16:26 36.94339 -4.79053 4952 ft 191 kts 170°
2026-05-07 16:27 36.92584 -4.78619 4955 ft 192 kts 170°
2026-05-07 16:27 36.91273 -4.78294 4955 ft 192 kts 169°
2026-05-07 16:27 36.89964 -4.77968 4956 ft 192 kts 169°
2026-05-07 16:27 36.88654 -4.77642 4958 ft 192 kts 169°
2026-05-07 16:28 36.87370 -4.77217 4951 ft 192 kts 157°
2026-05-07 16:28 36.86258 -4.76286 4959 ft 194 kts 136°
2026-05-07 16:28 36.85376 -4.75058 4786 ft 191 kts 133°
2026-05-07 16:28 36.84495 -4.73813 4443 ft 191 kts 133°
2026-05-07 16:29 36.83615 -4.72571 4198 ft 190 kts 133°
2026-05-07 16:29 36.82755 -4.71356 4193 ft 186 kts 133°
2026-05-07 16:29 36.81901 -4.70154 4155 ft 184 kts 133°
2026-05-07 16:29 36.81053 -4.68959 3968 ft 183 kts 133°
2026-05-07 16:30 36.80219 -4.67785 3752 ft 179 kts 133°
2026-05-07 16:30 36.79398 -4.66630 3504 ft 176 kts 133°
2026-05-07 16:30 36.78595 -4.65500 3270 ft 173 kts 134°
2026-05-07 16:30 36.77811 -4.64396 3039 ft 166 kts 134°
2026-05-07 16:31 36.77057 -4.63336 2793 ft 162 kts 134°
2026-05-07 16:31 36.76325 -4.62306 2574 ft 160 kts 135°
2026-05-07 16:31 36.75586 -4.61270 2354 ft 158 kts 134°
2026-05-07 16:31 36.74878 -4.60274 2125 ft 150 kts 134°
2026-05-07 16:32 36.74214 -4.59342 1923 ft 147 kts 134°
2026-05-07 16:32 36.73545 -4.58401 1722 ft 144 kts 134°
2026-05-07 16:32 36.72882 -4.57472 1509 ft 142 kts 134°
2026-05-07 16:32 36.72255 -4.56592 1307 ft 139 kts 134°
2026-05-07 16:33 36.71612 -4.55690 1108 ft 139 kts 132°
2026-05-07 16:33 36.71208 -4.55125 980 ft 138 kts 131°
2026-05-07 16:33 36.70972 -4.54796 913 ft 138 kts 131°
2026-05-07 16:33 36.70534 -4.54179 761 ft 139 kts 131°
2026-05-07 16:34 36.69743 -4.53075 514 ft 141 kts 131°
2026-05-07 16:34 36.69119 -4.52189 311 ft 140 kts 131°
2026-05-07 16:34 36.68494 -4.51314 115 ft 139 kts 130°
2026-05-07 16:34 36.67904 -4.50481 54 ft 118 kts 131°
2026-05-07 16:35 36.67468 -4.49879 51 ft 68 kts 131°
2026-05-07 16:35 36.67270 -4.49602 48 ft 29 kts 132°
2026-05-07 16:35 36.67172 -4.49445 47 ft 19 kts 120°
2026-05-07 16:35 36.67118 -4.49286 46 ft 20 kts 105°
2026-05-07 16:36 36.67100 -4.49121 42 ft 14 kts 78°
2026-05-07 16:36 36.67161 -4.49047 42 ft 8 kts
2026-05-07 16:36 36.67203 -4.49075 41 ft 7 kts 320°
2026-05-07 16:36 36.67233 -4.49113 42 ft 6 kts 312°
2026-05-07 16:37 36.67273 -4.49171 42 ft 10 kts 311°
2026-05-07 16:37 36.67313 -4.49225 42 ft 8 kts 320°
2026-05-07 16:37 36.67360 -4.49223 42 ft 7 kts 35°
2026-05-07 16:37 36.67391 -4.49188 42 ft 5 kts 43°
2026-05-07 16:38 36.67420 -4.49184 42 ft 4 kts 348°
2026-05-07 16:38 36.67448 -4.49202 41 ft 5 kts 330°
2026-05-07 16:38 36.67465 -4.49214 40 ft 0 kts 331°